Location: Staunton
(38.1490°N, 79.0720°W)
Time: 04:26:58
(UTC-04:00)

ISS - Pass Details

Date: 25 May 2019
Orbit: 407 x 410 km, 51.6° (Epoch: 21 May)

Event Time Altitude Azimuth Distance (km) Brightness Sun altitude
Rises 00:25:13 0° 319° (NW) 2,334 0.9 -29.9°
Reaches altitude 10° 00:28:02 10° 345° (NNW) 1,472 -0.1 -30.0°
Enters shadow 00:29:01 13° 2° (N) 1,292 -0.5 -30.1°
